,,Stat6,,Stat2,,Stat8,,Stat9,,Stat10,,Wind1,,Wind1,
time,status,PA1M_AVG,status,PR1M_SUM,status,RH1M_AVG,status,SR1M_AVG,status,TA1M_AVG,status,W1dAve1m,status,W1sAve1m,
2006-12-30, 19:10:00,VALID,918.24,VALID,0,VALID,67.8014,VALID,439.858,VALID,26.2676,VALID,254,VALID,0.391602,
2006-12-30, 19:11:00,VALID,918.225,VALID,0,VALID,67.4167,VALID,442.724,VALID,26.2714,VALID,258,VALID,0.392628,
2006-12-30, 19:12:00,VALID,918.221,VALID,0,VALID,68.1084,VALID,445.798,VALID,26.327,VALID,196,VALID,0.412016,
2006-12-30, 19:13:00,VALID,918.213,VALID,0,VALID,67.8515,VALID,448.124,VALID,26.3903,VALID,182,VALID,0.439808,
2006-12-30, 19:14:00,VALID,918.211,VALID,0,VALID,69.9866,VALID,451.622,VALID,26.4521,VALID,276,VALID,0.955669,
2006-12-30, 19:15:00,VALID,918.214,VALID,0,VALID,70.6834,VALID,455.256,VALID,26.4165,VALID,269,VALID,0.836115,
2006-12-30, 19:16:00,VALID,918.214,VALID,0,VALID,71.2544,VALID,461.93,VALID,26.4136,VALID,251,VALID,0.726563,
2006-12-30, 19:17:00,VALID,918.196,VALID,0,VALID,71.3663,VALID,469.656,VALID,26.435,VALID,291,VALID,0.52846,
2006-12-30, 19:18:00,VALID,918.189,VALID,0,VALID,71.1946,VALID,469.299,VALID,26.5704,VALID,234,VALID,0.468932,
2006-12-30, 19:19:00,VALID,918.179,VALID,0,VALID,69.7933,VALID,471.116,VALID,26.6516,VALID,177,VALID,0.363715,
2006-12-30, 19:20:00,VALID,918.175,VALID,0,VALID,69.1003,VALID,473.443,VALID,26.6746,VALID,146,VALID,0.262019,
2006-12-30, 19:21:00,VALID,918.154,VALID,0,VALID,70.5512,VALID,476.465,VALID,26.7266,VALID,251,VALID,0.392987,
2006-12-30, 19:22:00,VALID,918.141,VALID,0,VALID,69.0252,VALID,481.61,VALID,26.8718,VALID,285,VALID,0.551389,
2006-12-30, 19:23:00,VALID,918.129,VALID,0,VALID,69.0341,VALID,489.88,VALID,26.8097,VALID,275,VALID,1.08721,
2006-12-30, 19:24:00,VALID,918.123,VALID,0,VALID,70.2778,VALID,486.297,VALID,26.6419,VALID,232,VALID,1.00908,
2006-12-30, 19:25:00,VALID,918.133,VALID,0,VALID,71.0814,VALID,482.833,VALID,26.5032,VALID,215,VALID,0.803052,
2006-12-30, 19:26:00,VALID,918.133,VALID,0,VALID,71.4438,VALID,484.531,VALID,26.5485,VALID,88,VALID,0.818677,
2006-12-30, 19:27:00,VALID,918.128,VALID,0,VALID,70.0196,VALID,488.403,VALID,26.5258,VALID,78,VALID,0.750744,
2006-12-30, 19:28:00,VALID,918.127,VALID,0,VALID,70.5079,VALID,494.482,VALID,26.4483,VALID,101,VALID,0.579078,
2006-12-30, 19:29:00,VALID,918.121,VALID,0,VALID,71.6155,VALID,495.925,VALID,26.1677,VALID,147,VALID,0.508614,
2006-12-30, 19:30:00,VALID,918.106,VALID,0,VALID,70.9492,VALID,490.576,VALID,25.9146,VALID,130,VALID,1.18021,
2006-12-30, 19:31:00,VALID,918.1,VALID,0,VALID,71.3701,VALID,479.776,VALID,25.5196,VALID,142,VALID,0.644985,
2006-12-30, 19:32:00,VALID,918.077,VALID,0,VALID,73.0893,VALID,469.978,VALID,25.4918,VALID,173,VALID,0.371354,
2006-12-30, 19:33:00,VALID,918.049,VALID,0,VALID,74.4881,VALID,460.877,VALID,25.5823,VALID,248,VALID,0.707465,
2006-12-30, 19:34:00,VALID,918.048,VALID,0,VALID,75.0005,VALID,450.79,VALID,25.7093,VALID,272,VALID,0.502663,
2006-12-30, 19:35:00,VALID,918.039,VALID,0,VALID,73.1872,VALID,441.671,VALID,25.7736,VALID,161,VALID,0.953316,
2006-12-30, 19:36:00,VALID,918.006,VALID,0,VALID,72.1508,VALID,435.66,VALID,25.4013,VALID,124,VALID,1.16933,
2006-12-30, 19:37:01,VALID,918.007,VALID,0,VALID,75.0005,VALID,432.4,VALID,25.2759,VALID,145,VALID,1.15949,
2006-12-30, 19:38:00,VALID,917.982,VALID,0,VALID,76.0369,VALID,429.921,VALID,25.2475,VALID,228,VALID,1.05898,
2006-12-30, 19:39:00,VALID,917.99,VALID,0,VALID,76.0865,VALID,425.879,VALID,25.2498,VALID,96,VALID,0.68423,
2006-12-30, 19:40:01,VALID,917.983,VALID,0,VALID,75.8321,VALID,420.36,VALID,25.3506,VALID,104,VALID,0.670632,
2006-12-30, 19:41:00,VALID,917.982,VALID,0,VALID,76.4374,VALID,412.583,VALID,25.3406,VALID,150,VALID,0.591082,
2006-12-30, 19:42:00,VALID,917.987,VALID,0,VALID,76.3332,VALID,400.187,VALID,25.2659,VALID,130,VALID,0.866279,
2006-12-30, 19:43:01,VALID,917.971,VALID,0,VALID,76.7897,VALID,383.869,VALID,25.2271,VALID,117,VALID,0.409375,
2006-12-30, 19:44:00,VALID,917.954,VALID,0,VALID,77.2856,VALID,367.771,VALID,25.3312,VALID,255,VALID,0.687863,
2006-12-30, 19:45:00,VALID,917.921,VALID,0,VALID,77.5692,VALID,361.743,VALID,25.389,VALID,278,VALID,0.735828,
2006-12-30, 19:46:00,VALID,917.925,VALID,0,VALID,78.6284,VALID,362.914,VALID,25.4837,VALID,248,VALID,0.804688,
2006-12-30, 19:47:01,VALID,917.904,VALID,0,VALID,76.8965,VALID,361.199,VALID,25.5461,VALID,228,VALID,0.541061,
2006-12-30, 19:48:00,VALID,917.898,VALID,0,VALID,75.6389,VALID,356.071,VALID,25.6404,VALID,272,VALID,0.525618,
2006-12-30, 19:49:00,VALID,917.89,VALID,0,VALID,75.9288,VALID,350.858,VALID,25.6893,VALID,267,VALID,0.849848,
2006-12-30, 19:50:01,VALID,917.87,VALID,0,VALID,76.6739,VALID,346.935,VALID,25.5499,VALID,277,VALID,2.16332,
2006-12-30, 19:51:00,VALID,917.869,VALID,0,VALID,77.6632,VALID,346.086,VALID,25.4307,VALID,272,VALID,1.63151,
2006-12-30, 19:52:00,VALID,917.863,VALID,0,VALID,77.7434,VALID,344.745,VALID,25.401,VALID,241,VALID,1.05243,
2006-12-30, 19:53:00,VALID,917.87,VALID,0,VALID,77.0974,VALID,338.683,VALID,25.4084,VALID,268,VALID,0.731424,
2006-12-30, 19:54:00,VALID,917.859,VALID,0,VALID,77.2665,VALID,331.653,VALID,25.3557,VALID,266,VALID,1.06879,
2006-12-30, 19:55:00,VALID,917.85,VALID,0,VALID,77.2195,VALID,325.404,VALID,25.2691,VALID,272,VALID,1.88984,
2006-12-30, 19:56:00,VALID,917.854,VALID,0,VALID,78.2774,VALID,320.802,VALID,25.1825,VALID,265,VALID,1.20703,
2006-12-30, 19:57:01,VALID,917.828,VALID,0,VALID,79.2273,VALID,317.491,VALID,25.1498,VALID,281,VALID,1.5605,
2006-12-30, 19:58:01,VALID,917.823,VALID,0,VALID,79.4371,VALID,312.855,VALID,25.2474,VALID,277,VALID,1.08713,
2006-12-30, 19:59:00,VALID,917.812,VALID,0,VALID,79.5999,VALID,307.047,VALID,25.3696,VALID,273,VALID,1.30841,
2006-12-30, 20:00:00,VALID,917.786,VALID,0,VALID,77.5577,VALID,300.934,VALID,25.4443,VALID,277,VALID,1.84629,
2006-12-30, 20:01:00,VALID,917.779,VALID,0,VALID,77.6811,VALID,295.534,VALID,25.3605,VALID,272,VALID,1.03013,
2006-12-30, 20:02:01,VALID,917.752,VALID,0,VALID,77.662,VALID,293.157,VALID,25.3599,VALID,275,VALID,1.19387,
2006-12-30, 20:03:01,VALID,917.726,VALID,0,VALID,77.297,VALID,292.393,VALID,25.3396,VALID,272,VALID,1.24382,
2006-12-30, 20:04:00,VALID,917.701,VALID,0,VALID,77.8413,VALID,293.157,VALID,25.2197,VALID,279,VALID,1.56831,
2006-12-30, 20:05:01,VALID,917.677,VALID,0,VALID,78.5445,VALID,295.076,VALID,25.1586,VALID,272,VALID,1.45052,
2006-12-30, 20:06:01,VALID,917.666,VALID,0,VALID,79.076,VALID,297.249,VALID,25.1679,VALID,279,VALID,1.03507,
2006-12-30, 20:07:00,VALID,917.652,VALID,0,VALID,78.3741,VALID,300.034,VALID,25.1863,VALID,277,VALID,0.873047,
2006-12-30, 20:08:01,VALID,917.64,VALID,0,VALID,78.5648,VALID,302.717,VALID,25.2607,VALID,284,VALID,1.09617,
2006-12-30, 20:09:00,VALID,917.627,VALID,0,VALID,77.9303,VALID,303.312,VALID,25.3809,VALID,227,VALID,0.666061,
2006-12-30, 20:10:00,VALID,917.616,VALID,0,VALID,77.161,VALID,301.597,VALID,25.4326,VALID,234,VALID,0.218932,
2006-12-30, 20:11:00,VALID,917.6,VALID,0,VALID,77.1152,VALID,298.54,VALID,25.5034,VALID,262,VALID,0.304688,
2006-12-30, 20:12:00,VALID,917.582,VALID,0,VALID,76.782,VALID,295.229,VALID,25.5781,VALID,270,VALID,0.337891,
2006-12-30, 20:13:00,VALID,917.58,VALID,0,VALID,76.4451,VALID,291.663,VALID,25.6288,VALID,272,VALID,0.289426,
2006-12-30, 20:14:00,VALID,917.567,VALID,0,VALID,75.5333,VALID,288.623,VALID,25.5651,VALID,270,VALID,0.251116,
2006-12-30, 20:15:00,VALID,917.557,VALID,0,VALID,75.3184,VALID,285.991,VALID,25.5008,VALID,242,VALID,0.290516,
2006-12-30, 20:16:00,VALID,917.535,VALID,0,VALID,75.3896,VALID,282.561,VALID,25.4449,VALID,200,VALID,0.35293,
2006-12-30, 20:17:01,VALID,917.511,VALID,0,VALID,76.2009,VALID,277.535,VALID,25.3137,VALID,197,VALID,0.619048,
2006-12-30, 20:18:00,VALID,917.511,VALID,0,VALID,76.7897,VALID,271.014,VALID,25.24,VALID,267,VALID,0.254207,
2006-12-30, 20:19:00,VALID,917.49,VALID,0,VALID,76.5786,VALID,263.22,VALID,25.2788,VALID,317,VALID,0.512784,
2006-12-30, 20:20:00,VALID,917.48,VALID,0,VALID,77.4636,VALID,254.678,VALID,25.346,VALID,289,VALID,0.679501,
2006-12-30, 20:21:01,VALID,917.481,VALID,0,VALID,78.0778,VALID,246.511,VALID,25.3654,VALID,269,VALID,0.784412,
2006-12-30, 20:22:00,VALID,917.46,VALID,0,VALID,77.5183,VALID,240.5,VALID,25.3366,VALID,286,VALID,0.840909,
2006-12-30, 20:23:00,VALID,917.452,VALID,0,VALID,77.5234,VALID,237.392,VALID,25.282,VALID,236,VALID,0.835392,
2006-12-30, 20:24:01,VALID,917.436,VALID,0,VALID,78.0791,VALID,237.562,VALID,25.0403,VALID,244,VALID,1.06765,
2006-12-30, 20:25:00,VALID,917.416,VALID,0,VALID,78.1452,VALID,242.198,VALID,24.8202,VALID,210,VALID,0.662326,
2006-12-30, 20:26:00,VALID,917.399,VALID,0,VALID,78.6932,VALID,250.213,VALID,24.6842,VALID,190,VALID,0.340116,
2006-12-30, 20:27:01,VALID,917.363,VALID,0,VALID,79.1612,VALID,260.758,VALID,24.7588,VALID,280,VALID,1.03348,
2006-12-30, 20:28:00,VALID,917.344,VALID,0,VALID,79.3112,VALID,273.205,VALID,24.7756,VALID,269,VALID,1.96447,
2006-12-30, 20:29:01,VALID,917.334,VALID,0,VALID,80.9491,VALID,285.753,VALID,24.6586,VALID,270,VALID,1.3872,
2006-12-30, 20:30:00,VALID,917.297,VALID,0,VALID,80.7011,VALID,297.589,VALID,24.6625,VALID,277,VALID,1.29482,
2006-12-30, 20:31:01,VALID,917.269,VALID,0,VALID,80.5155,VALID,309.544,VALID,24.6366,VALID,249,VALID,1.38619,
2006-12-30, 20:32:00,VALID,917.27,VALID,0,VALID,79.9725,VALID,321.175,VALID,24.5206,VALID,253,VALID,1.28368,
2006-12-30, 20:33:01,VALID,917.239,VALID,0,VALID,79.9114,VALID,333.317,VALID,24.456,VALID,272,VALID,1.03652,
2006-12-30, 20:34:00,VALID,917.216,VALID,0,VALID,80.5943,VALID,345.815,VALID,24.4625,VALID,272,VALID,1.44446,
2006-12-30, 20:35:00,VALID,917.192,VALID,0,VALID,79.6177,VALID,358.414,VALID,24.4531,VALID,263,VALID,1.33381,
2006-12-30, 20:36:00,VALID,917.169,VALID,0,VALID,80.9834,VALID,373.256,VALID,24.4178,VALID,263,VALID,0.735263,
2006-12-30, 20:37:01,VALID,917.14,VALID,0,VALID,80.8308,VALID,392.172,VALID,24.5403,VALID,267,VALID,0.958757,
2006-12-30, 20:38:00,VALID,917.101,VALID,0,VALID,79.6508,VALID,413.551,VALID,24.6085,VALID,272,VALID,1.26962,
2006-12-30, 20:39:00,VALID,917.088,VALID,0,VALID,79.8123,VALID,434.913,VALID,24.5526,VALID,266,VALID,0.74907,
2006-12-30, 20:40:00,VALID,917.07,VALID,0,VALID,79.6419,VALID,450.875,VALID,24.614,VALID,278,VALID,0.279948,
2006-12-30, 20:41:00,VALID,917.031,VALID,0,VALID,81.108,VALID,461.93,VALID,24.8347,VALID,288,VALID,0.845846,
2006-12-30, 20:42:00,VALID,917.003,VALID,0,VALID,79.4918,VALID,470.675,VALID,25.0283,VALID,252,VALID,1.0728,
2006-12-30, 20:43:00,VALID,916.979,VALID,0,VALID,79.0302,VALID,481.95,VALID,25.1117,VALID,275,VALID,1.23533,
2006-12-30, 20:44:01,VALID,916.95,VALID,0,VALID,78.7784,VALID,511.785,VALID,25.2287,VALID,286,VALID,1.60411,
2006-12-30, 20:45:01,VALID,916.929,VALID,0,VALID,78.753,VALID,551.86,VALID,25.2775,VALID,294,VALID,1.51953,
2006-12-30, 20:46:00,VALID,916.918,VALID,0,VALID,77.4305,VALID,535.015,VALID,25.335,VALID,275,VALID,2.25052,
2006-12-30, 20:47:00,VALID,916.913,VALID,0,VALID,76.9677,VALID,505.842,VALID,25.4585,VALID,268,VALID,1.92276,
2006-12-30, 20:48:00,VALID,916.899,VALID,0,VALID,75.8194,VALID,486.891,VALID,25.4258,VALID,261,VALID,2.02593,
2006-12-30, 20:49:01,VALID,916.905,VALID,0,VALID,75.7101,VALID,481.814,VALID,25.2894,VALID,228,VALID,0.64226,
2006-12-30, 20:50:00,VALID,916.872,VALID,0,VALID,77.1749,VALID,489.965,VALID,25.2115,VALID,213,VALID,0.525484,
2006-12-30, 20:51:00,VALID,916.862,VALID,0,VALID,77.9862,VALID,489.557,VALID,25.2768,VALID,278,VALID,1.48075,
2006-12-30, 20:52:01,VALID,916.833,VALID,0,VALID,78.6653,VALID,497.997,VALID,25.3382,VALID,291,VALID,2.01326,
2006-12-30, 20:53:01,VALID,916.849,VALID,0,VALID,78.5127,VALID,511.87,VALID,25.3896,VALID,252,VALID,1.75233,
2006-12-30, 20:54:00,VALID,916.852,VALID,0,VALID,77.0516,VALID,500.714,VALID,25.3735,VALID,251,VALID,1.23996,
2006-12-30, 20:55:01,VALID,916.842,VALID,0,VALID,77.3924,VALID,493.837,VALID,25.4378,VALID,275,VALID,2.04941,
2006-12-30, 20:56:01,VALID,916.834,VALID,0,VALID,76.3649,VALID,497.878,VALID,25.4093,VALID,270,VALID,1.94731,
2006-12-30, 20:57:00,VALID,916.833,VALID,0,VALID,76.2162,VALID,502.361,VALID,25.3221,VALID,265,VALID,1.55398,
2006-12-30, 20:58:00,VALID,916.818,VALID,0,VALID,75.3082,VALID,486.959,VALID,25.2022,VALID,219,VALID,1.09487,
2006-12-30, 20:59:00,VALID,916.8,VALID,0,VALID,76.4527,VALID,475.361,VALID,25.0632,VALID,221,VALID,0.628634,
2006-12-30, 21:00:01,VALID,916.799,VALID,0,VALID,77.5297,VALID,473.85,VALID,25.0981,VALID,261,VALID,1.15845,
2006-12-30, 21:01:01,VALID,916.77,VALID,0,VALID,77.2818,VALID,479.505,VALID,25.1243,VALID,218,VALID,0.847852,
2006-12-30, 21:02:01,VALID,916.76,VALID,0,VALID,77.8896,VALID,470.386,VALID,25.1411,VALID,262,VALID,2.07598,
2006-12-30, 21:03:00,VALID,916.757,VALID,0,VALID,76.955,VALID,462.863,VALID,25.0535,VALID,265,VALID,1.77858,
2006-12-30, 21:04:01,VALID,916.734,VALID,0,VALID,77.7395,VALID,453.66,VALID,24.9927,VALID,254,VALID,1.39499,
2006-12-30, 21:05:00,VALID,916.717,VALID,0,VALID,79.2388,VALID,454.984,VALID,24.9498,VALID,280,VALID,1.67076,
2006-12-30, 21:06:00,VALID,916.691,VALID,0,VALID,78.9043,VALID,464.188,VALID,24.9401,VALID,305,VALID,2.43564,
2006-12-30, 21:07:00,VALID,916.7,VALID,0,VALID,78.4135,VALID,461.318,VALID,24.8561,VALID,305,VALID,1.7221,
2006-12-30, 21:08:00,VALID,916.687,VALID,0,VALID,80.4684,VALID,458.567,VALID,24.8144,VALID,300,VALID,1.62593,
2006-12-30, 21:09:00,VALID,916.678,VALID,0,VALID,80.3908,VALID,460.69,VALID,24.8784,VALID,275,VALID,1.70617,
2006-12-30, 21:10:01,VALID,916.668,VALID,0,VALID,79.7131,VALID,470.029,VALID,24.9759,VALID,258,VALID,1.56959,
2006-12-30, 21:11:01,VALID,916.664,VALID,0,VALID,77.8413,VALID,476.584,VALID,24.9815,VALID,262,VALID,1.7587,
2006-12-30, 21:12:01,VALID,916.651,VALID,0,VALID,77.7764,VALID,492.648,VALID,24.9465,VALID,242,VALID,1.45668,
2006-12-30, 21:13:00,VALID,916.649,VALID,0,VALID,77.0821,VALID,492.359,VALID,24.8531,VALID,235,VALID,1.54978,
2006-12-30, 21:14:01,VALID,916.643,VALID,0,VALID,77.4407,VALID,432.043,VALID,24.6719,VALID,209,VALID,1.33612,
2006-12-30, 21:15:00,VALID,916.643,VALID,0,VALID,79.3952,VALID,428.885,VALID,24.5397,VALID,247,VALID,1.10898,
2006-12-30, 21:16:00,VALID,916.619,VALID,0,VALID,79.8491,VALID,420.411,VALID,24.7142,VALID,244,VALID,1.03553,
2006-12-30, 21:17:00,VALID,916.615,VALID,0,VALID,78.8102,VALID,404.517,VALID,24.7885,VALID,239,VALID,1.08142,
2006-12-30, 21:18:00,VALID,916.6,VALID,0,VALID,79.2032,VALID,391.51,VALID,24.817,VALID,283,VALID,2.21021,
2006-12-30, 21:19:01,VALID,916.58,VALID,0,VALID,78.767,VALID,376.584,VALID,24.7814,VALID,281,VALID,1.92678,
2006-12-30, 21:20:01,VALID,916.559,VALID,0,VALID,79.427,VALID,359.348,VALID,24.8913,VALID,272,VALID,2.60577,
2006-12-30, 21:21:01,VALID,916.566,VALID,0,VALID,77.7713,VALID,347.852,VALID,24.9527,VALID,271,VALID,1.55614,
2006-12-30, 21:22:01,VALID,916.549,VALID,0,VALID,77.9506,VALID,336.39,VALID,24.9527,VALID,232,VALID,1.504,
2006-12-30, 21:23:01,VALID,916.545,VALID,0,VALID,79.0277,VALID,328.324,VALID,24.7397,VALID,247,VALID,1.39367,
2006-12-30, 21:24:00,VALID,916.541,VALID,0,VALID,80.1035,VALID,322.517,VALID,24.6945,VALID,269,VALID,2.26762,
2006-12-30, 21:25:01,VALID,916.535,VALID,0,VALID,80.6083,VALID,317.762,VALID,24.7106,VALID,264,VALID,1.23454,
2006-12-30, 21:26:01,VALID,916.536,VALID,0,VALID,80.4175,VALID,312.787,VALID,24.8011,VALID,253,VALID,1.3766,
2006-12-30, 21:27:01,VALID,916.527,VALID,0,VALID,78.5343,VALID,307.132,VALID,24.8981,VALID,271,VALID,1.12954,
2006-12-30, 21:28:01,VALID,916.521,VALID,0,VALID,77.2792,VALID,300.051,VALID,24.9439,VALID,255,VALID,0.76527,
2006-12-30, 21:29:01,VALID,916.522,VALID,0,VALID,77.5463,VALID,290.899,VALID,25.0018,VALID,270,VALID,1.37378,
2006-12-30, 21:30:01,VALID,916.522,VALID,0,VALID,76.3014,VALID,282.459,VALID,25.028,VALID,264,VALID,1.31632,
2006-12-30, 21:31:01,VALID,916.514,VALID,0,VALID,76.5239,VALID,275.378,VALID,24.9924,VALID,257,VALID,1.08229,
2006-12-30, 21:32:01,VALID,916.503,VALID,0,VALID,76.0801,VALID,270.08,VALID,24.9145,VALID,249,VALID,0.281641,
2006-12-30, 21:33:01,VALID,916.478,VALID,0,VALID,77.779,VALID,265.903,VALID,24.9604,VALID,281,VALID,1.82031,
2006-12-30, 21:34:01,VALID,916.475,VALID,0,VALID,77.573,VALID,262.575,VALID,25.0121,VALID,268,VALID,1.76283,
2006-12-30, 21:35:01,VALID,916.476,VALID,0,VALID,76.0394,VALID,259.569,VALID,24.9863,VALID,270,VALID,1.00035,
2006-12-30, 21:36:01,VALID,916.447,VALID,0,VALID,76.0903,VALID,256.733,VALID,24.9469,VALID,272,VALID,0.716033,
2006-12-30, 21:37:01,VALID,916.439,VALID,0,VALID,78.0969,VALID,254.526,VALID,24.899,VALID,264,VALID,1.23531,
2006-12-30, 21:38:01,VALID,916.422,VALID,0,VALID,78.9794,VALID,252.284,VALID,24.9633,VALID,278,VALID,1.12748,
2006-12-30, 21:39:00,VALID,916.403,VALID,0,VALID,78.308,VALID,250.314,VALID,25.0806,VALID,278,VALID,1.3566,
2006-12-30, 21:40:01,VALID,916.398,VALID,0,VALID,76.7324,VALID,248.175,VALID,25.1291,VALID,240,VALID,0.803234,
2006-12-30, 21:41:01,VALID,916.391,VALID,0,VALID,76.6383,VALID,244.83,VALID,25.09,VALID,268,VALID,1.16533,
2006-12-30, 21:42:01,VALID,916.388,VALID,0,VALID,77.414,VALID,240.601,VALID,24.9792,VALID,272,VALID,1.26432,
2006-12-30, 21:43:01,VALID,916.375,VALID,0,VALID,79.1307,VALID,235.524,VALID,24.9443,VALID,276,VALID,1.64531,
2006-12-30, 21:44:01,VALID,916.376,VALID,0,VALID,78.2075,VALID,230.362,VALID,24.9678,VALID,266,VALID,1.16406,
2006-12-30, 21:45:01,VALID,916.371,VALID,0,VALID,77.7116,VALID,225.234,VALID,24.9287,VALID,268,VALID,0.992378,
2006-12-30, 21:46:01,VALID,916.357,VALID,0,VALID,77.4865,VALID,220.445,VALID,24.9032,VALID,244,VALID,1.15156,
2006-12-30, 21:47:01,VALID,916.361,VALID,0,VALID,77.2373,VALID,215.657,VALID,24.7587,VALID,268,VALID,0.862723,
2006-12-30, 21:48:00,VALID,916.357,VALID,0,VALID,77.4661,VALID,211.123,VALID,24.7658,VALID,307,VALID,0.661111,
2006-12-30, 21:49:01,VALID,916.361,VALID,0,VALID,77.1165,VALID,206.555,VALID,24.7913,VALID,307,VALID,0.188072,
2006-12-30, 21:50:01,VALID,916.362,VALID,0,VALID,77.3975,VALID,202.089,VALID,24.8404,VALID,281,VALID,0.84375,
2006-12-30, 21:51:01,VALID,916.355,VALID,0,VALID,77.6798,VALID,198.608,VALID,24.843,VALID,274,VALID,0.653343,
2006-12-30, 21:52:01,VALID,916.356,VALID,0,VALID,78.6182,VALID,196.383,VALID,24.8459,VALID,258,VALID,0.532965,
2006-12-30, 21:53:01,VALID,916.358,VALID,0,VALID,79.0302,VALID,195.008,VALID,24.9048,VALID,257,VALID,0.402158,
2006-12-30, 21:54:01,VALID,916.355,VALID,0,VALID,78.2456,VALID,194.125,VALID,24.9733,VALID,269,VALID,1.06105,
2006-12-30, 21:55:01,VALID,916.351,VALID,0,VALID,76.8113,VALID,193.48,VALID,25.0046,VALID,267,VALID,0.361919,
2006-12-30, 21:56:01,VALID,916.343,VALID,0,VALID,76.866,VALID,192.681,VALID,25.0731,VALID,268,VALID,0.287861,
2006-12-30, 21:57:01,VALID,916.347,VALID,0,VALID,76.9639,VALID,191.781,VALID,25.1666,VALID,270,VALID,0.358259,
2006-12-30, 21:58:01,VALID,916.342,VALID,0,VALID,76.4883,VALID,190.814,VALID,25.1763,VALID,299,VALID,1.37135,
2006-12-30, 21:59:01,VALID,916.335,VALID,0,VALID,78.4809,VALID,189.846,VALID,24.9923,VALID,281,VALID,1.75037,
2006-12-30, 22:00:01,VALID,916.352,VALID,0,VALID,78.1223,VALID,188.895,VALID,24.8563,VALID,280,VALID,1.26403,
2006-12-30, 22:01:01,VALID,916.347,VALID,0,VALID,77.7917,VALID,188.233,VALID,24.7396,VALID,282,VALID,0.901521,
2006-12-30, 22:02:01,VALID,916.341,VALID,0,VALID,78.238,VALID,188.046,VALID,24.6828,VALID,280,VALID,1.15904,
2006-12-30, 22:03:01,VALID,916.328,VALID,0,VALID,78.8026,VALID,188.521,VALID,24.612,VALID,275,VALID,1.09863,
2006-12-30, 22:04:01,VALID,916.312,VALID,0,VALID,79.544,VALID,189.812,VALID,24.6036,VALID,283,VALID,0.918155,
2006-12-30, 22:05:01,VALID,916.317,VALID,0,VALID,79.0824,VALID,192.019,VALID,24.6226,VALID,281,VALID,0.793139,
2006-12-30, 22:06:01,VALID,916.315,VALID,0,VALID,79.2362,VALID,194.787,VALID,24.5583,VALID,274,VALID,1.53757,
2006-12-30, 22:07:01,VALID,916.3,VALID,0,VALID,79.0493,VALID,198.302,VALID,24.4508,VALID,270,VALID,1.49055,
2006-12-30, 22:08:00,VALID,916.302,VALID,0,VALID,78.0091,VALID,202.123,VALID,24.3897,VALID,270,VALID,1.06822,
2006-12-30, 22:09:00,VALID,916.294,VALID,0,VALID,78.8357,VALID,206.317,VALID,24.3964,VALID,269,VALID,1.04006,
2006-12-30, 22:10:00,VALID,916.285,VALID,0,VALID,78.8357,VALID,210.511,VALID,24.4323,VALID,278,VALID,0.920573,
2006-12-30, 22:11:00,VALID,916.255,VALID,0,VALID,79.6241,VALID,214.366,VALID,24.4969,VALID,285,VALID,0.897347,
2006-12-30, 22:12:00,VALID,916.261,VALID,0,VALID,79.6711,VALID,217.643,VALID,24.5677,VALID,291,VALID,0.974564,
2006-12-30, 22:13:00,VALID,916.244,VALID,0,VALID,79.8148,VALID,219.851,VALID,24.6459,VALID,276,VALID,0.89968,
2006-12-30, 22:14:00,VALID,916.243,VALID,0,VALID,79.5592,VALID,220.683,VALID,24.7555,VALID,264,VALID,1.23531,
2006-12-30, 22:15:00,VALID,916.226,VALID,0,VALID,78.0269,VALID,220.055,VALID,24.7134,VALID,268,VALID,1.28981,
2006-12-30, 22:16:00,VALID,916.214,VALID,0,VALID,77.6226,VALID,217.626,VALID,24.633,VALID,278,VALID,1.46875,
2006-12-30, 22:17:00,VALID,916.209,VALID,0,VALID,78.4008,VALID,213.958,VALID,24.5689,VALID,264,VALID,1.23668,
2006-12-30, 22:18:00,VALID,916.208,VALID,0,VALID,78.7072,VALID,209.272,VALID,24.5525,VALID,272,VALID,1.07431,
2006-12-30, 22:19:00,VALID,916.192,VALID,0,VALID,78.6119,VALID,204.619,VALID,24.5748,VALID,271,VALID,0.981831,
2006-12-30, 22:20:00,VALID,916.185,VALID,0,VALID,79.3558,VALID,200.934,VALID,24.6582,VALID,250,VALID,1.18643,
2006-12-30, 22:21:00,VALID,916.179,VALID,0,VALID,78.5012,VALID,198.506,VALID,24.6136,VALID,227,VALID,1.17933,
2006-12-30, 22:22:00,VALID,916.168,VALID,0,VALID,78.4224,VALID,197.98,VALID,24.5169,VALID,256,VALID,1.64879,
2006-12-30, 22:23:00,VALID,916.166,VALID,0,VALID,76.7235,VALID,199.847,VALID,24.368,VALID,272,VALID,1.70382,
2006-12-30, 22:24:00,VALID,916.145,VALID,0,VALID,78.3792,VALID,203.855,VALID,24.3166,VALID,267,VALID,1.57919,
2006-12-30, 22:25:00,VALID,916.131,VALID,0,VALID,77.8006,VALID,210.392,VALID,24.3169,VALID,271,VALID,1.49628,
2006-12-30, 22:26:00,VALID,916.12,VALID,0,VALID,78.2914,VALID,219.579,VALID,24.2355,VALID,254,VALID,1.33894,
2006-12-30, 22:27:00,VALID,916.116,VALID,0,VALID,78.706,VALID,227.645,VALID,24.2261,VALID,272,VALID,1.41456,
2006-12-30, 22:28:00,VALID,916.114,VALID,0,VALID,77.3021,VALID,236.781,VALID,24.2487,VALID,250,VALID,1.58921,
2006-12-30, 22:29:00,VALID,916.114,VALID,0,VALID,77.7917,VALID,246.205,VALID,24.2067,VALID,246,VALID,0.92702,
2006-12-30, 22:30:00,VALID,916.109,VALID,0,VALID,78.0485,VALID,253.779,VALID,24.2423,VALID,247,VALID,0.968568,
2006-12-30, 22:31:00,VALID,916.112,VALID,0,VALID,77.6111,VALID,258.703,VALID,24.2655,VALID,259,VALID,1.4151,
2006-12-30, 22:32:00,VALID,916.102,VALID,0,VALID,76.9232,VALID,260.503,VALID,24.2587,VALID,262,VALID,1.48363,
2006-12-30, 22:33:00,VALID,916.093,VALID,0,VALID,77.5717,VALID,260.843,VALID,24.2843,VALID,272,VALID,2.03995,
2006-12-30, 22:34:00,VALID,916.103,VALID,0,VALID,77.3797,VALID,262.32,VALID,24.2778,VALID,256,VALID,1.74273,
2006-12-30, 22:35:00,VALID,916.112,VALID,0,VALID,77.5704,VALID,265.682,VALID,24.2358,VALID,235,VALID,1.49785,
2006-12-30, 22:36:00,VALID,916.108,VALID,0,VALID,78.8547,VALID,272.525,VALID,24.1395,VALID,263,VALID,1.41736,
2006-12-30, 22:37:00,VALID,916.103,VALID,0,VALID,78.7047,VALID,280.15,VALID,24.2329,VALID,271,VALID,1.79464,
2006-12-30, 22:38:00,VALID,916.103,VALID,0,VALID,77.1444,VALID,288.165,VALID,24.2726,VALID,270,VALID,1.94438,
2006-12-30, 22:39:00,VALID,916.11,VALID,0,VALID,78.4453,VALID,295.144,VALID,24.291,VALID,275,VALID,1.45625,
2006-12-30, 22:40:00,VALID,916.108,VALID,0,VALID,78.4745,VALID,300.527,VALID,24.4041,VALID,276,VALID,1.72828,
2006-12-30, 22:41:00,VALID,916.107,VALID,0,VALID,78.7645,VALID,304.246,VALID,24.5654,VALID,261,VALID,0.93125,
2006-12-30, 22:42:00,VALID,916.101,VALID,0,VALID,77.5386,VALID,303.43,VALID,24.6568,VALID,265,VALID,1.29706,
2006-12-30, 22:43:00,VALID,916.109,VALID,0,VALID,78.2927,VALID,300.374,VALID,24.7487,VALID,276,VALID,1.21227,